Location: Hains Lake
(37.8540°N, 99.8578°W)
Time: 21:32:41
(UTC+00:00)

Vanguard 2 Rocket - Pass Details

Date: 27 April 2021
Orbit: 553 x 3326 km, 32.9° (Epoch: 05 May)

Event Time Altitude Azimuth Distance (km) Brightness Sun altitude
Rises 23:44:49 0° 282° (WNW) 7,093 13.0 18.7°
Reaches altitude 10° 23:49:38 10° 278° (W) 6,212 13.7 17.7°
Maximum altitude 00:08:27 49° 212° (SSW) 3,748 10.5 14.0°
Drops below altitude 10° 00:23:36 10° 144° (SE) 5,068 10.3 11.1°
Sets 00:27:06 0° 138° (SE) 5,753 10.5 10.4°
